Temperature
17 17 17 17 17 17 17 17 18 18 18 18 18 18 18 17 17 17 17 17 17 17 17 16 16 16 16 16 16 15 15 15 15 15 15 14 14 14 14 14 14 14 14
17 17 17 17 17 17 17 17 17 17 17 18 18 18 17 17 17 17 17 17 17 17 17 16 16 16 16 16 15 15 15 15 15 15 15 15 14 14 14 14 14 14 13
17 17 17 17 17 17 17 17 17 17 17 17 17 17 17 17 17 17 17 17 17 17 16 16 16 16 16 16 15 15 15 15 15 15 15 14 14 14 14 14 13 13 13
17 17 17 17 17 17 17 17 17 17 17 17 17 17 17 17 17 17 17 16 16 16 16 16 16 16 15 15 15 15 15 15 15 15 15 14 14 14 13 13 13 13 13
17 17 17 17 17 17 17 17 17 17 17 17 17 17 17 17 16 16 16 16 16 16 16 16 16 15 15 15 15 15 15 15 15 15 15 14 14 13 13 13 13 13 13
17 16 16 16 16 17 17 17 17 16 17 17 17 16 16 16 16 16 16 16 16 16 16 16 16 15 15 15 15 15 15 15 15 15 14 14 14 13 13 13 13 13 13
16 16 16 16 16 16 16 16 16 16 16 16 16 16 16 16 16 16 16 16 16 16 15 15 15 15 15 15 15 15 15 15 15 14 14 14 14 14 13 13 13 13 13
16 16 16 16 16 16 16 16 16 16 16 16 16 16 16 16 16 16 16 16 15 15 15 15 15 15 15 15 15 15 15 14 14 14 14 14 14 14 13 13 13 13 13
15 15 15 15 15 15 15 15 15 15 15 15 15 15 15 15 15 15 15 15 15 15 15 15 15 15 15 15 15 15 14 14 14 14 14 14 13 13 13 13 13 13 13
15 15 15 15 15 15 15 15 15 15 15 15 15 15 15 15 15 15 15 15 15 15 15 15 15 14 15 14 14 14 14 14 14 14 14 14 13 13 13 13 13 13 13
14 14 14 14 14 14 14 14 14 14 14 14 14 14 14 14 14 15 14 14 14 14 14 14 14 14 14 14 14 14 14 14 14 14 14 14 13 13 13 13 13 13 13
14 14 14 14 14 14 14 14 14 14 14 14 14 14 14 14 14 14 14 14 14 14 14 14 14 14 14 14 14 13 13 13 13 13 13 13 13 13 13 13 13 13 12
14 14 14 14 13 13 13 13 13 13 13 13 13 13 13 13 13 13 14 14 14 14 13 14 13 14 13 13 13 13 13 13 13 13 13 13 13 13 13 12 12 12 12
13 13 13 13 13 13 13 13 13 13 13 13 13 13 13 13 13 13 13 13 13 13 13 13 13 13 13 13 13 13 13 13 13 12 12 13 12 12 12 12 12 12 12
13 13 13 13 13 12 12 12 12 12 12 12 12 12 12 12 12 13 13 13 13 13 13 13 13 13 13 13 12 12 12 12 12 12 12 12 12 12 12 12 12 12 12
13 13 12 12 12 12 12 12 12 12 12 12 12 12 12 12 12 12 12 12 12 12 12 12 12 12 12 12 12 12 12 12 12 12 12 12 12 12 12 12 12 12 12
12 12 12 12 12 12 11 11 11 11 11 11 11 11 11 11 11 11 11 12 12 12 12 12 12 11 11 11 11 11 11 12 12 12 12 12 12 12 12 12 12 12 11
12 12 12 12 11 11 11 11 11 11 11 11 11 11 11 11 11 11 11 11 11 11 11 11 11 11 11 11 11 11 11 11 11 11 11 11 11 11 12 12 11 11 11
12 12 12 11 11 11 11 11 10 10 10 10 10 10 10 10 10 10 10 10 10 10 10 10 10 10 10 10 10 10 11 11 11 11 11 11 11 11 11 11 11 11 11
12 11 11 11 11 11 11 10 10 10 10 10 10 10 10 10 10 10 10 10 10 10 10 10 10 10 10 10 10 10 10 10 10 10 11 11 11 11 11 11 11 11 11
11 11 11 11 10 10 10 10 10 9 9 9 9 9 9 9 9 9 9 9 9 9 9 9 9 9 9 9 9 9 9 10 10 10 10 10 10 10 10 10 10 10 10
11 11 10 10 10 10 10 9 9 9 9 9 9 9 9 9 9 9 9 9 9 9 9 9 9 9 9 8 8 8 8 9 9 9 10 10 10 10 10 10 10 10 10
10 10 10 10 10 9 9 9 9 8 8 8 8 8 9 9 9 9 8 8 9 9 9 9 8 8 8 8 8 8 8 8 8 9 9 9 9 9 9 9 10 10 10
10 10 10 9 9 9 9 9 8 8 8 8 8 8 8 8 8 8 8 8 8 8 8 8 8 8 8 8 8 8 8 8 8 8 8 9 9 9 9 9 9 10 10
10 9 9 9 9 9 8 8 8 8 8 8 8 8 8 8 8 8 8 8 8 8 8 8 8 8 8 8 7 7 7 7 8 8 8 8 9 9 9 9 9 9 9
9 9 9 9 9 8 8 8 8 7 7 7 7 7 7 7 7 7 7 7 7 7 7 8 8 7 7 7 7 7 7 7 8 8 8 8 8 8 9 9 9 9 9
Wind_Speed
2 3 8 9 9 9 10 10 10 10 10 9 9 9 9 10 10 10 10 10 10 10 10 11 11 11 11 11 11 12 12 12 11 11 11 11 11 11 11 11 11 10 11
6 5 9 9 9 9 9 9 9 9 9 8 8 8 8 9 9 9 9 9 9 10 10 10 10 10 10 10 11 11 11 11 11 11 10 10 10 10 10 11 10 9 10
7 7 9 9 9 8 8 8 8 8 8 7 7 7 7 8 8 8 8 8 8 9 9 9 10 10 10 10 10 11 11 10 10 10 10 8 8 9 10 10 10 10 10
7 7 8 10 9 7 7 7 7 7 7 6 6 6 6 7 7 7 7 7 8 8 8 9 9 9 10 10 10 10 10 10 10 10 7 6 7 9 10 10 10 9 9
7 7 8 9 9 8 7 6 5 6 6 5 6 6 6 6 6 6 6 6 7 7 7 8 9 9 9 9 10 10 10 10 10 9 7 6 6 8 9 9 10 9 9
6 6 8 9 8 7 6 6 5 4 4 4 5 5 5 6 6 6 6 6 6 7 7 8 9 9 9 9 10 9 9 9 9 7 7 7 7 9 9 9 10 9 9
6 5 7 8 7 6 6 5 4 3 3 3 4 4 5 5 5 5 5 6 6 6 7 8 9 9 9 9 9 9 9 9 9 7 7 7 8 9 10 10 10 10 9
7 5 6 7 7 6 6 5 4 3 2 3 3 3 4 4 4 5 5 5 5 5 6 8 9 9 9 8 8 8 8 8 9 7 7 7 9 10 10 10 10 9 9
6 5 4 5 5 5 5 4 4 2 1 2 2 2 3 4 4 4 4 4 4 4 5 7 8 9 9 8 8 7 8 8 8 7 8 8 10 11 11 10 11 10 10
4 4 3 3 4 3 2 3 3 3 1 1 1 2 3 3 4 4 5 5 4 4 4 5 7 9 9 9 8 8 7 7 7 7 8 9 11 11 11 11 11 11 11
2 2 3 2 2 2 2 2 1 1 2 1 1 1 1 2 3 4 4 5 5 5 4 4 6 7 8 9 9 8 7 6 7 7 8 10 12 12 12 11 12 12 12
1 1 2 3 2 2 2 2 1 1 2 1 0 1 1 1 2 3 4 5 5 5 4 5 5 6 6 6 7 7 6 6 7 7 8 12 13 13 13 12 12 13 13
4 2 2 3 3 2 1 1 1 1 1 2 1 1 1 1 2 2 2 3 4 4 4 4 4 4 4 5 4 5 5 6 7 8 9 12 13 14 14 13 13 14 14
4 4 4 4 3 2 2 1 1 0 0 1 2 2 1 1 2 2 2 3 3 3 3 3 2 3 4 5 6 5 6 5 6 8 10 13 14 15 15 15 15 14 15
5 5 4 4 4 3 2 2 2 2 2 2 2 3 3 3 3 3 3 3 4 3 4 3 3 3 3 5 5 6 6 7 8 9 10 13 15 15 16 16 16 16 16
5 5 4 4 5 4 4 3 3 3 3 3 3 4 4 4 4 3 3 4 4 5 5 4 4 4 4 4 5 6 6 7 8 9 10 12 15 17 17 17 17 17 17
5 4 4 4 4 4 4 4 3 4 4 4 4 5 5 5 5 4 4 5 5 6 5 4 4 3 4 4 5 6 6 7 7 9 10 10 12 15 17 17 17 17 18
5 4 4 4 4 5 5 5 4 4 4 4 4 5 6 6 6 5 4 5 5 5 5 4 4 4 4 4 4 5 5 5 7 8 9 9 10 11 14 17 18 18 18
6 5 4 4 5 5 5 4 5 4 5 5 5 5 6 7 7 6 5 5 6 5 5 5 4 4 4 4 4 5 5 5 6 7 8 9 10 11 11 14 17 18 19
5 4 4 4 5 4 3 3 3 4 4 4 5 5 7 7 8 6 6 6 6 5 5 5 5 4 4 4 5 5 5 6 6 7 8 8 9 10 11 12 12 13 17
4 4 4 4 4 3 3 3 3 4 4 4 5 7 7 8 8 7 6 6 6 6 7 7 5 5 4 3 2 3 4 5 7 7 7 6 7 9 10 11 10 10 11
4 5 5 6 5 5 5 5 5 5 5 5 5 6 7 8 8 8 8 7 7 6 7 7 6 5 4 4 3 2 3 3 4 6 6 7 7 6 7 10 10 9 10
5 6 6 6 6 6 6 4 3 3 3 4 5 5 7 8 8 8 9 8 8 7 8 8 8 8 6 5 5 4 3 4 3 3 5 6 6 6 7 7 9 9 10
7 6 6 6 6 6 6 5 5 6 6 7 6 6 6 7 8 8 9 9 8 7 8 9 8 6 7 6 5 5 5 4 4 3 3 4 6 7 7 7 7 8 10
6 5 5 5 5 5 5 6 7 7 7 6 5 7 7 7 7 8 8 8 9 8 9 9 8 7 7 7 6 5 5 5 5 5 6 5 4 5 7 7 7 7 9
4 3 4 4 5 5 5 6 7 8 8 7 7 7 7 6 6 8 8 8 9 8 9 9 9 9 8 8 7 6 5 5 5 5 6 6 6 6 5 6 7 6 7
Wind_Direction
203 184 129 124 117 114 115 117 115 112 110 111 114 117 120 122 126 127 129 131 135 137 138 139 140 138 136 137 133 130 129 125 124 122 120 121 122 120 117 114 108 105 109
169 149 124 121 116 116 116 117 118 118 117 117 117 121 124 129 133 134 136 139 141 143 144 144 140 137 136 139 139 138 135 131 129 126 123 123 125 127 127 123 120 117 114
137 131 119 115 113 116 117 117 116 120 124 123 124 125 131 135 137 142 145 149 151 152 152 152 148 146 143 141 141 142 141 139 138 136 131 126 131 136 134 130 130 124 121
129 122 118 115 111 110 117 120 121 122 127 129 132 134 136 140 142 147 154 158 159 160 161 159 155 155 153 151 150 148 145 143 146 147 138 136 137 142 141 138 136 133 129
119 116 117 116 112 108 106 113 126 132 132 135 139 144 147 151 153 152 156 164 167 168 168 164 161 162 161 159 159 159 156 150 151 152 148 150 150 152 149 146 143 140 136
119 111 117 119 116 110 107 105 108 123 139 140 146 152 159 157 157 162 166 165 171 173 170 168 167 167 166 166 168 169 164 159 156 149 158 163 161 166 163 154 149 148 144
130 117 117 117 113 112 111 103 102 108 122 145 149 153 157 159 161 163 166 169 170 176 177 174 173 172 173 173 174 177 175 169 162 157 163 170 171 175 169 164 161 158 155
135 120 112 112 106 100 101 97 89 101 120 131 153 162 164 167 170 169 171 171 173 177 183 184 184 183 181 182 183 180 176 176 173 170 171 179 183 183 178 176 173 171 170
127 125 110 109 109 102 96 89 82 83 122 147 157 174 165 167 174 180 181 183 182 185 189 195 195 191 188 190 191 185 177 178 170 174 179 186 192 194 191 188 185 185 184
119 129 130 112 109 103 108 100 79 66 63 162 180 175 177 182 185 186 191 193 191 189 195 204 203 200 196 198 201 194 181 175 176 185 186 192 200 202 202 199 195 194 192
118 145 151 144 122 119 126 121 96 62 29 14 203 193 191 203 199 195 200 199 197 200 203 212 214 209 203 204 207 200 182 179 184 192 197 204 208 210 209 206 203 201 199
185 196 169 165 161 136 126 108 85 41 3 350 292 218 236 217 211 204 200 201 206 203 208 219 229 215 206 205 209 201 189 187 190 201 210 215 216 218 215 213 209 207 207
195 197 189 175 170 160 147 129 83 32 357 334 290 232 218 214 224 211 191 201 206 203 202 219 217 212 206 201 201 205 202 194 197 209 216 221 222 223 221 220 217 214 214
200 205 206 185 176 177 165 185 180 197 272 289 290 255 209 199 211 208 197 202 194 197 195 197 197 206 213 214 210 211 211 207 205 211 219 222 225 227 227 227 224 222 220
202 211 207 190 185 185 183 208 206 211 225 241 262 264 230 206 217 212 210 203 201 198 194 200 212 222 231 227 222 224 220 215 212 215 221 223 225 228 232 231 229 229 227
205 210 211 199 194 186 192 203 215 220 229 234 239 248 241 223 212 215 219 216 208 205 204 203 213 225 235 234 234 231 229 222 218 218 221 224 226 228 233 234 234 233 233
201 207 214 211 199 195 205 214 220 225 223 225 235 239 241 234 219 211 219 223 218 213 206 206 214 218 239 241 239 238 235 231 225 221 221 222 225 229 233 235 237 237 237
192 202 219 220 208 213 216 223 225 227 226 230 236 235 236 235 228 214 222 227 220 211 201 206 214 222 236 240 244 240 238 236 234 228 222 221 222 228 232 236 237 239 241
196 201 215 219 217 222 224 224 228 225 225 233 238 237 238 237 233 223 223 225 217 211 209 213 216 217 231 244 247 244 238 236 236 236 232 227 224 225 228 236 239 241 242
201 201 210 220 223 224 231 235 238 237 232 233 234 238 241 240 234 227 225 223 216 217 215 211 214 224 226 232 258 260 250 246 239 233 235 233 228 226 227 231 234 240 243
202 203 213 217 232 223 227 233 236 240 240 237 236 236 239 238 234 228 233 223 219 219 218 213 213 219 231 220 252 280 273 250 243 238 233 232 232 229 225 227 230 234 241
208 214 220 226 233 231 226 225 222 229 237 238 240 240 239 237 233 232 225 220 218 222 222 215 207 214 228 211 205 250 270 274 249 240 230 229 230 228 230 233 232 233 236
219 226 230 233 236 239 235 233 243 250 254 251 245 242 240 237 235 231 226 224 220 219 223 220 211 212 223 223 203 205 222 239 277 251 238 236 230 230 232 235 236 236 236
228 230 232 236 240 242 235 229 232 240 249 248 244 243 251 241 238 229 224 225 223 223 225 224 222 221 212 226 223 220 230 230 239 266 261 245 240 236 231 235 237 238 237
224 228 235 237 244 247 240 234 235 245 247 250 249 247 250 246 238 230 225 224 224 225 225 223 222 223 217 223 228 226 234 243 235 242 263 264 263 244 233 231 232 238 240
229 235 243 244 254 249 246 244 237 244 248 251 255 251 252 248 242 235 230 227 228 228 227 225 222 223 224 225 229 230 228 229 230 231 244 251 261 266 246 236 235 236 241
Height
1498 1498 1498 1499 1500 1501 1502 1503 1504 1505 1506 1506 1507 1508 1509 1509 1510 1511 1511 1512 1513 1513 1514 1515 1515 1516 1516 1516 1517 1517 1517 1517 1517 1517 1517 1517 1517 1517 1517 1517 1517 1518 1518
1497 1497 1498 1499 1500 1501 1502 1503 1504 1504 1505 1506 1507 1508 1508 1509 1510 1510 1511 1512 1512 1513 1514 1514 1515 1515 1516 1516 1516 1517 1517 1517 1517 1517 1517 1517 1517 1517 1517 1517 1518 1518 1518
1496 1497 1498 1499 1499 1500 1501 1502 1503 1504 1505 1506 1506 1507 1508 1508 1509 1510 1510 1511 1512 1512 1513 1514 1514 1515 1515 1516 1516 1516 1517 1517 1517 1517 1517 1517 1517 1517 1518 1518 1518 1518 1518
1496 1497 1497 1498 1499 1500 1501 1502 1502 1503 1504 1505 1505 1506 1507 1508 1508 1509 1510 1510 1511 1512 1512 1513 1514 1514 1515 1515 1515 1516 1516 1516 1516 1517 1517 1517 1517 1518 1518 1518 1518 1519 1519
1496 1496 1497 1498 1498 1499 1500 1501 1502 1502 1503 1503 1504 1505 1506 1506 1507 1508 1508 1509 1510 1510 1511 1512 1513 1513 1514 1514 1515 1515 1515 1515 1516 1516 1516 1517 1517 1517 1518 1518 1518 1519 1519
1495 1495 1496 1497 1498 1498 1499 1500 1500 1501 1501 1502 1503 1503 1504 1505 1506 1506 1507 1508 1508 1509 1510 1510 1511 1512 1512 1513 1514 1514 1514 1514 1515 1515 1515 1516 1516 1517 1517 1517 1518 1518 1519
1494 1494 1495 1496 1497 1497 1498 1498 1499 1499 1500 1500 1501 1502 1502 1503 1504 1505 1505 1506 1507 1507 1508 1508 1509 1510 1511 1511 1512 1513 1513 1513 1514 1514 1514 1515 1515 1516 1516 1517 1517 1517 1518
1492 1493 1494 1495 1495 1496 1496 1497 1497 1498 1498 1499 1499 1500 1500 1501 1502 1503 1503 1504 1504 1505 1506 1507 1507 1508 1509 1510 1510 1511 1511 1512 1512 1513 1513 1514 1514 1515 1515 1516 1516 1516 1517
1491 1492 1492 1493 1493 1494 1495 1495 1495 1496 1496 1497 1497 1498 1498 1499 1500 1500 1501 1502 1502 1503 1504 1504 1505 1506 1506 1507 1508 1509 1509 1510 1511 1511 1512 1512 1513 1514 1514 1514 1515 1515 1515
1489 1490 1491 1491 1491 1492 1492 1493 1493 1494 1494 1495 1495 1496 1496 1496 1497 1498 1498 1499 1500 1500 1501 1502 1502 1503 1504 1505 1506 1506 1507 1508 1508 1509 1510 1510 1511 1512 1512 1512 1513 1513 1514
1487 1488 1488 1489 1489 1489 1490 1490 1491 1491 1492 1492 1493 1493 1493 1494 1494 1495 1496 1496 1497 1498 1498 1499 1500 1500 1501 1502 1503 1504 1504 1505 1506 1506 1507 1508 1509 1509 1510 1510 1511 1511 1512
1484 1485 1486 1486 1487 1487 1487 1488 1488 1488 1489 1489 1490 1490 1490 1491 1491 1492 1493 1493 1494 1495 1495 1496 1497 1497 1498 1499 1500 1500 1501 1502 1503 1504 1504 1505 1506 1507 1507 1507 1508 1509 1509
1481 1482 1483 1483 1483 1484 1484 1485 1485 1485 1486 1486 1487 1487 1487 1488 1488 1489 1489 1490 1491 1491 1492 1493 1493 1494 1495 1495 1496 1497 1498 1499 1499 1500 1501 1502 1503 1504 1504 1505 1505 1506 1506
1479 1479 1480 1480 1480 1481 1481 1481 1482 1482 1483 1483 1483 1484 1484 1484 1484 1485 1486 1486 1487 1488 1488 1489 1490 1491 1492 1492 1493 1494 1494 1495 1496 1497 1498 1499 1500 1500 1501 1501 1502 1503 1503
1475 1476 1476 1477 1477 1477 1478 1478 1478 1479 1479 1479 1480 1480 1480 1480 1480 1481 1482 1482 1483 1484 1485 1486 1486 1487 1488 1488 1489 1490 1491 1491 1492 1493 1494 1495 1496 1497 1497 1498 1498 1499 1499
1472 1473 1473 1473 1474 1474 1474 1474 1475 1475 1475 1475 1476 1476 1476 1476 1476 1477 1478 1478 1479 1480 1481 1482 1482 1483 1484 1484 1485 1486 1487 1487 1488 1489 1490 1491 1492 1493 1493 1494 1495 1495 1496
1468 1469 1469 1470 1470 1470 1471 1471 1471 1471 1471 1471 1471 1472 1472 1472 1473 1473 1473 1474 1475 1476 1477 1477 1478 1479 1480 1480 1481 1481 1482 1483 1484 1484 1485 1486 1487 1488 1489 1490 1490 1491 1492
1464 1465 1466 1466 1467 1467 1467 1467 1467 1467 1467 1467 1467 1467 1468 1468 1468 1468 1468 1469 1470 1471 1472 1472 1473 1474 1475 1475 1476 1477 1477 1478 1479 1480 1481 1481 1482 1483 1484 1485 1485 1486 1487
1460 1461 1462 1462 1463 1463 1463 1463 1462 1462 1462 1462 1462 1462 1463 1463 1464 1464 1464 1465 1466 1466 1467 1468 1469 1469 1470 1471 1471 1472 1472 1473 1474 1475 1475 1476 1477 1477 1478 1479 1480 1481 1482
1456 1457 1458 1458 1459 1459 1459 1458 1458 1457 1457 1457 1457 1457 1458 1458 1458 1459 1459 1460 1460 1461 1462 1463 1464 1465 1466 1467 1467 1467 1468 1468 1469 1469 1470 1471 1472 1472 1473 1474 1475 1475 1476
1452 1453 1453 1454 1454 1454 1454 1453 1453 1452 1451 1451 1451 1451 1452 1452 1453 1453 1453 1454 1455 1455 1456 1458 1459 1460 1461 1462 1463 1462 1462 1463 1463 1464 1464 1465 1466 1467 1468 1469 1469 1470 1470
1448 1449 1449 1449 1449 1449 1449 1448 1448 1447 1446 1445 1445 1446 1446 1446 1447 1447 1448 1448 1449 1450 1451 1452 1453 1454 1456 1458 1458 1458 1457 1457 1456 1457 1458 1459 1460 1461 1462 1463 1464 1464 1464
1444 1444 1444 1444 1444 1444 1444 1444 1443 1442 1440 1440 1439 1439 1440 1440 1440 1441 1442 1443 1443 1444 1445 1446 1448 1449 1450 1452 1454 1455 1454 1451 1450 1451 1452 1453 1454 1455 1455 1457 1457 1458 1459
1439 1440 1439 1439 1439 1438 1438 1438 1437 1435 1434 1433 1433 1433 1434 1434 1434 1434 1436 1437 1437 1438 1439 1440 1442 1443 1444 1445 1447 1448 1449 1449 1448 1445 1445 1447 1448 1448 1449 1450 1451 1451 1453
1435 1435 1435 1434 1434 1433 1433 1432 1431 1430 1429 1428 1428 1427 1427 1428 1428 1429 1429 1430 1430 1431 1433 1434 1435 1437 1438 1439 1440 1440 1442 1443 1443 1442 1439 1440 1441 1442 1443 1444 1445 1445 1446
1431 1431 1431 1430 1429 1428 1427 1427 1425 1424 1423 1422 1421 1421 1421 1421 1422 1422 1423 1423 1424 1425 1426 1427 1428 1430 1431 1432 1433 1434 1435 1436 1435 1436 1435 1434 1435 1435 1437 1437 1438 1439 1440